User: anonymous   Login
Location: Albany
(35.0000°S, 118.0000°E)
Time: 01:28:41
(UTC-05:00)
Language:

CZ-4B R/B - Orbit

View from above orbital plane
View from above orbital plane
View from above satellite
View from above satellite

Ground track
Ground track

The orbit data is extracted from the following two-line orbital elements,

1 33410U 08053C   14352.52058736  .00007921  00000-0  61916-3 0   141
2 33410 097.6073 323.9879 0127922 010.0059 350.3663 14.95030168334377
Epoch (UTC): 18 December 2014 12:29:38
Eccentricity: 0.0127922
inclination: 97.6073°
perigee height: 493 km
apogee height: 671 km
right ascension of ascending node: 323.9879°
argument of perigee: 10.0059°
revolutions per day: 14.95030168
mean anomaly at epoch: 350.3663°
orbit number at epoch: 33437

The dashed part of the orbit path shows where the satellite is in the earth's shadow,  

DLR